Flag for U.S.A. Weather past 2 weeks in Paterson, New Jersey, U.S.A.

Now
53 °F

Sunny.


Feels Like: 51 °F
Forecast: 44 / 59 °F
Wind: 8 mph from South

Location: Essex County Airport


UV Index: 5 (Moderate)

Visibility: 10 mi


Pressure: 30.43 "Hg

Humidity: 37%

Dew point: 27 °F

Location of PatersonLocation

Historic Weather in Paterson

°F

Paterson temperature yesterday

Maximum temperature yesterday: 65 °F (at 2:53 PM)
Minimum temperature yesterday: 37 °F (at 5:53 AM)
Average temperature yesterday: 53 °F

Past Weeks' High & Low Weather Summary

 TemperatureHumidityPressure
High81 °F (Apr 13, 3:53 PM)100% (Apr 7, 7:53 PM)30.76 "Hg (Apr 7, 7:53 PM)
Low30 °F (Apr 16, 5:53 AM)15% (Apr 6, 6:53 PM)29.42 "Hg (Apr 8, 12:53 PM)
Average51 °F55%30.12 "Hg
* Reported Apr 5 4:53 PM — Apr 20 4:53 PM, Paterson, Weather by CustomWeather, © 2014

Note: Actual official high and low records may vary slightly from our data, if they occured in-between our weather recording intervals... More about our weather records

Advertising

Historic Weather Conditions — Data for Previous 24 hours

 ConditionsComfort  
Time TempWeatherWind HumidityBarometerVisibility
4:53 PM
Apr 20
53 °FSunny.8 mph37%30.43 "Hg10 mi
3:53 PM54 °FSunny.6 mph35%30.44 "Hg10 mi
2:53 PM55 °FSunny.10 mph35%30.46 "Hg10 mi
1:53 PM55 °FSunny.13 mph31%30.47 "Hg10 mi
12:53 PM54 °FSunny.No wind34%30.48 "Hg10 mi
11:53 AM53 °FSunny.9 mph35%30.50 "Hg10 mi
10:53 AM52 °FSunny.8 mph38%30.52 "Hg10 mi
9:53 AM50 °FSunny.13 mph38%30.51 "Hg10 mi
8:53 AM49 °FSunny.13 mph41%30.50 "Hg10 mi
7:53 AM46 °FSunny.10 mph46%30.50 "Hg10 mi
6:53 AM44 °FClear.5 mph51%30.49 "Hg10 mi
5:53 AM44 °FClear.No wind49%30.46 "Hg10 mi
4:53 AM46 °FClear.3 mph46%30.44 "Hg10 mi
3:53 AM47 °FClear.7 mph44%30.43 "Hg10 mi
2:53 AM48 °FClear.6 mph41%30.42 "Hg10 mi
1:53 AM49 °FClear.3 mph39%30.40 "Hg10 mi
12:53 AM50 °FClear.3 mph38%30.39 "Hg10 mi
11:53 PM
Apr 19
52 °FClear.6 mph34%30.37 "Hg10 mi
10:53 PM53 °FClear.7 mph31%30.37 "Hg10 mi
9:53 PM56 °FClear.8 mph28%30.36 "Hg10 mi
8:53 PM58 °FClear.7 mph24%30.31 "Hg10 mi
7:53 PM61 °FSunny.No wind20%30.29 "Hg10 mi
6:53 PM64 °FSunny.No wind18%30.27 "Hg10 mi
5:53 PM65 °FSunny.6 mph17%30.26 "Hg10 mi
Weather by CustomWeather, © 2014

See weather overview